Bay City, TX

6:00 AM CST on February 06, 2016 (GMT -0600)
Oak Creek 2 | | Change Station
CLOSE
Current Station
Personal Weather Station
Location: Van Vleck, TX
Elevation: 62 ft
Nearby Weather Stations

Elev 62 ft 29.04 °N, 95.89 °W | Updated 16 seconds ago

Rain
Rain
46.0 °F
Feels Like 46 °F
N
1.3
Wind Variable Wind from WNW
Gusts 2.5 mph

Today
High -- | Low -- °F
--% Chance of Precip.
Yesterday
High -- | Low -- °F
Precip. -- in
Pressure 30.29 in
Visibility 10.0 miles
Clouds Scattered Clouds 11000 ft
Windchill 46 °F
Dew Point 46 °F
Humidity 99%
Rainfall 0.07 in
Snow Depth Not available.
7:09 AM 6:06 PM
Waning Crescent, 6% visible
METAR KBYY 061135Z AUTO 00000KT 10SM SCT110 06/06 A3029 RMK AO2 T00670064
Pressure 30.29 in
Visibility 10.0 miles
Clouds Scattered Clouds 11000 ft
Windchill 46 °F
Dew Point 46 °F
Humidity 99%
Rainfall 0.07 in
Snow Depth Not available.
7:09 AM 6:06 PM
Waning Crescent, 6% visible
METAR KBYY 061135Z AUTO 00000KT 10SM SCT110 06/06 A3029 RMK AO2 T00670064

10-Day Weather Forecast

Almanac

Astronomy

Feb. 06, 2016 Rise Set
Actual Time
Civil Twilight
Nautical Twilight
Astronomical Twilight
Moon
Length of Visible Light
Length of Day
Tomorrow will be .
, % of the Moon is Illuminated

Today's Extremes

State Highs State Lows

Community

WunderPhotos

Upload Photos

1,890,944 photos uploaded!

WunderBlog® & News

Nearby

Air Quality

  Air Quality AQ Index Pollutant
Not available.

Snow Depth

Station Depth Elevation

Earthquake Activity

City Distance Mag. Time & Date
Minimum magnitude displayed is 2.5.

Coastal Water Temperatures

Place Temperature

Stations

Nearby Weather Stations

Station Location Temp. Windchill Dew Point Humidity Wind Precip. Elev Updated Type
                   

Watches & Warnings

There are currently no watches in effect.